Weather History for KSYR - January, 2013

Change the Weather History Date:

Tuesday, January 22, 2013

  Actual Average Record
Temperature  
Mean Temperature 13 °F 23 °F  
Max Temperature 17 °F 31 °F 68 °F (1906)
Min Temperature 8 °F 15 °F -19 °F (1984)
Degree Days  
Heating Degree Days 52 42  
Month to date heating degree days 763 911  
Since 1 July heating degree days 2881 3364  
Cooling Degree Days 0 0  
Month to date cooling degree days 0 0  
Year to date cooling degree days 0 0  
Moisture  
Dew Point 1 °F    
Average Humidity 64    
Maximum Humidity 80    
Minimum Humidity 48    
Precipitation  
Precipitation 0.05 in 0.08 in 1.41 in (1904)
Month to date precipitation 0.49 1.85  
Year to date precipitation 0.49 1.85  
Snow  
Snow 1.10 in 1.10 in 11.80 in (2005)
Month to date snowfall 9.3 24.1  
Since 1 July snowfall 44.5 66.7  
Snow Depth 2.00 in    
Sea Level Pressure  
Sea Level Pressure 30.01 in    
Wind  
Wind Speed 19 mph (West)    
Max Wind Speed 32 mph    
Max Gust Speed 39 mph    
Visibility 6 miles    
Events Snow    
T = Trace of Precipitation, MM = Missing Value Source: NWS Daily Summary

Daily Weather History Graph

Daily Weather History Graph

Search for Another Location

Airport or City:

Trip Planner

Search our weather history database for the weather conditions in past years. The results will help you decide how hot, cold, wet, or windy it might be!

Date:

Astronomy

Jan. 22, 2013 Rise Set
Actual Time 7:28 AM EST 5:03 PM EST
Civil Twilight 6:57 AM EST 5:34 PM EST
Nautical Twilight 6:23 AM EST 6:09 PM EST
Astronomical Twilight 5:49 AM EST 6:43 PM EST
Moon 1:24 PM EST (1/22) 3:49 AM EST (1/22)
Length of Visible Light 10h 37m
Length of Day
9h 35m
Waxing Gibbous, 82% of the Moon is Illuminated
Jan 22
Waxing Gibbous
Jan 26
Full
Feb 3
Last Quarter
Feb 10
New
Feb 17
First Quarter

Hourly Weather History & Observations

Time (EST) Temp. Windchill Dew Point Humidity Pressure Visibility Wind Dir Wind Speed Gust Speed Precip Events Conditions
12:05 AM 17.6 °F 3.2 °F 12.2 °F 79% 29.84 in 0.2 mi WNW 15.0 mph 29.9 mph 0.01 in Snow Heavy Snow
12:09 AM 17.6 °F 4.3 °F 12.2 °F 79% 29.84 in 1.2 mi WNW 12.7 mph 26.5 mph 0.01 in Snow Light Snow
12:13 AM 17.6 °F 5.0 °F 12.2 °F 79% 29.84 in 3.0 mi West 11.5 mph - 0.01 in Snow Light Snow
12:17 AM 17.6 °F 5.0 °F 12.2 °F 79% 29.84 in 3.0 mi West 11.5 mph - 0.01 in Snow Light Snow
12:33 AM 17.6 °F 5.0 °F 8.6 °F 68% 29.84 in 10.0 mi West 11.5 mph - 0.01 in   Mostly Cloudy
12:54 AM 16.0 °F 0.1 °F 6.1 °F 65% 29.85 in 10.0 mi West 17.3 mph - 0.01 in   Scattered Clouds
1:54 AM 15.1 °F -0.6 °F 1.0 °F 54% 29.86 in 10.0 mi WSW 16.1 mph - N/A   Scattered Clouds
2:54 AM 14.0 °F -3.0 °F -0.9 °F 52% 29.87 in 10.0 mi WSW 18.4 mph 24.2 mph N/A   Partly Cloudy
3:54 AM 12.9 °F -1.6 °F -4.0 °F 47% 29.88 in 10.0 mi West 12.7 mph - N/A   Scattered Clouds
4:54 AM 12.0 °F -6.0 °F -4.0 °F 49% 29.90 in 10.0 mi WSW 19.6 mph 29.9 mph N/A   Mostly Cloudy
5:54 AM 10.9 °F -8.8 °F -2.0 °F 56% 29.91 in 9.0 mi WSW 23.0 mph 31.1 mph N/A   Overcast
6:54 AM 10.9 °F -7.9 °F -2.9 °F 54% 29.94 in 9.0 mi WSW 20.7 mph 29.9 mph N/A   Mostly Cloudy
7:54 AM 10.0 °F -8.6 °F -4.0 °F 53% 29.96 in 7.0 mi WSW 19.6 mph 29.9 mph N/A   Scattered Clouds
8:54 AM 10.9 °F -8.3 °F -2.9 °F 54% 29.97 in 6.0 mi WSW 21.9 mph 31.1 mph N/A Snow Blowing Snow
9:54 AM 12.9 °F -8.0 °F -0.9 °F 54% 29.99 in 6.0 mi WSW 28.8 mph 35.7 mph N/A Snow Blowing Snow
9:56 AM 12.2 °F -9.9 °F -0.4 °F 57% 29.97 in 1.5 mi WSW 32.2 mph 39.1 mph N/A Snow Blowing Snow
10:02 AM 12.2 °F -7.5 °F -0.4 °F 57% 29.97 in 6.0 mi WSW 24.2 mph 39.1 mph N/A Snow Blowing Snow
10:54 AM 14.0 °F -5.8 °F 1.0 °F 56% 30.00 in 6.0 mi WSW 26.5 mph 34.5 mph N/A Snow Blowing Snow
11:54 AM 15.1 °F -3.7 °F 1.9 °F 56% 30.00 in 5.0 mi WSW 24.2 mph 32.2 mph N/A Snow Blowing Snow
12:54 PM 16.0 °F -1.7 °F 1.0 °F 52% 30.00 in 10.0 mi West 21.9 mph 29.9 mph N/A   Overcast
1:54 PM 15.1 °F -2.9 °F -0.0 °F 51% 30.01 in 10.0 mi West 21.9 mph 31.1 mph N/A Snow Blowing Snow
2:54 PM 15.1 °F -3.3 °F -0.9 °F 49% 30.02 in 10.0 mi WSW 23.0 mph 26.5 mph N/A   Overcast
3:54 PM 14.0 °F -4.3 °F -0.9 °F 52% 30.05 in 10.0 mi WSW 21.9 mph 28.8 mph N/A   Overcast
4:54 PM 14.0 °F -3.9 °F -2.9 °F 47% 30.07 in 10.0 mi WSW 20.7 mph 26.5 mph N/A   Mostly Cloudy
5:54 PM 12.9 °F -4.9 °F -2.9 °F 49% 30.10 in 9.0 mi WSW 19.6 mph - 0.00 in Snow Light Snow
6:54 PM 12.0 °F -5.1 °F -2.9 °F 51% 30.11 in 9.0 mi WSW 17.3 mph - 0.00 in Snow Light Snow
7:54 PM 10.9 °F -7.5 °F -2.9 °F 54% 30.12 in 10.0 mi West 19.6 mph - 0.00 in   Overcast
8:35 PM 10.4 °F -6.0 °F 1.4 °F 67% 30.11 in 2.0 mi West 15.0 mph 23.0 mph 0.00 in Snow Light Snow
8:40 PM 10.4 °F -7.2 °F 3.2 °F 73% 30.11 in 1.0 mi West 17.3 mph - 0.01 in Snow Light Snow
8:42 PM 10.4 °F -6.6 °F 3.2 °F 73% 30.11 in 0.5 mi West 16.1 mph - 0.01 in Snow Light Snow
8:54 PM 10.0 °F -4.5 °F 5.0 °F 80% 30.14 in 0.5 mi West 11.5 mph - 0.01 in Snow Light Snow
9:23 PM 10.4 °F -3.3 °F 5.0 °F 79% 30.12 in 0.5 mi WNW 10.4 mph - 0.02 in Snow Light Snow
9:52 PM 8.6 °F -7.7 °F 3.2 °F 79% 30.13 in 0.5 mi NW 13.8 mph 23.0 mph 0.02 in Snow Light Snow
9:54 PM 9.0 °F -6.6 °F 3.0 °F 77% 30.15 in 0.5 mi NW 12.7 mph 23.0 mph 0.02 in Snow Light Snow
10:06 PM 8.6 °F -8.3 °F 1.4 °F 73% 30.14 in 1.5 mi NW 15.0 mph - 0.01 in Snow Light Snow
10:31 PM 8.6 °F -5.5 °F 1.4 °F 73% 30.15 in 3.0 mi NW 10.4 mph - 0.01 in Snow Light Snow
10:49 PM 8.6 °F -7.0 °F 1.4 °F 73% 30.15 in 2.5 mi NW 12.7 mph - 0.01 in Snow Light Snow
10:54 PM 8.1 °F -7.7 °F 1.0 °F 73% 30.17 in 2.5 mi NW 12.7 mph - 0.01 in Snow Light Snow
11:26 PM 8.6 °F -4.7 °F 1.4 °F 73% 30.15 in 1.5 mi WNW 9.2 mph - 0.00 in Snow Light Snow
11:54 PM 8.1 °F -0.5 °F 1.0 °F 73% 30.17 in 1.5 mi NW 4.6 mph - 0.01 in Snow Light Snow